Terminal Aerodrome Forecast
Issued by NWS Boise, ID

Home | Current Version | Previous Version | Text Only | Print | Product List | Glossary On
Versions: 1 2 3 4 5 6 7 8 9 10 11 12 13 14 15 16 17 18 19 20 21 22 23 24 25 26 27 28 29 30 31 32 33 34
030
FTUS45 KBOI 051907 AAA
TAFBOI
TAF AMD
KBOI 051907Z 0519/0618 VRB03KT P6SM FEW002 SCT250
      TEMPO 0519/0520 2SM BR
     FM060600 14006KT P6SM VCFG OVC150
     FM061200 14006KT 5SM BR OVC100=

USA.gov is the U.S. government's official web portal to all federal, state and local government web resources and services.